TimeEST,TemperatureF,Dew PointF,Humidity,Sea Level PressureIn,VisibilityMPH,Wind Direction,Wind SpeedMPH,Gust SpeedMPH,PrecipitationIn,Events,Conditions,WindDirDegrees,DateUTC
12:53 AM,21.9,17.1,82,30.38,6.0,NW,9.2,-,0.00,Snow,Light Snow,320,2013-11-13 05:53:00
1:46 AM,21.9,15.1,75,30.31,7.0,NW,9.2,-,0.00,Snow,Light Snow,320,2013-11-13 06:46:00
1:53 AM,21.0,14.0,74,30.39,9.0,NW,10.4,-,0.00,,Mostly Cloudy,320,2013-11-13 06:53:00
2:04 AM,19.9,12.9,74,30.31,10.0,NW,10.4,-,N/A,,Mostly Cloudy,320,2013-11-13 07:04:00
2:14 AM,21.0,14.0,74,30.31,10.0,NW,10.4,-,N/A,,Mostly Cloudy,320,2013-11-13 07:14:00
2:45 AM,21.0,14.0,74,30.31,10.0,NW,11.5,-,N/A,,Overcast,320,2013-11-13 07:45:00
2:53 AM,21.0,14.0,74,30.39,9.0,NNW,10.4,-,N/A,,Overcast,330,2013-11-13 07:53:00
3:53 AM,21.0,16.0,81,30.40,4.0,NW,8.1,-,0.00,Snow,Light Snow,310,2013-11-13 08:53:00
4:53 AM,21.9,17.1,82,30.40,7.0,WNW,5.8,-,0.00,Snow,Light Snow,290,2013-11-13 09:53:00
5:01 AM,21.9,17.1,82,30.32,7.0,West,4.6,-,0.00,Snow,Light Snow,280,2013-11-13 10:01:00
5:23 AM,21.9,17.1,82,30.32,9.0,WNW,4.6,-,0.00,,Overcast,290,2013-11-13 10:23:00
5:33 AM,21.9,17.1,82,30.32,7.0,WNW,6.9,-,0.00,Snow,Light Snow,290,2013-11-13 10:33:00
5:41 AM,21.9,18.0,85,30.32,8.0,WNW,5.8,-,0.00,,Overcast,290,2013-11-13 10:41:00
5:53 AM,21.9,18.0,85,30.41,3.0,WNW,5.8,-,0.00,Snow,Light Snow,300,2013-11-13 10:53:00
6:03 AM,21.9,18.0,85,30.32,2.5,WNW,5.8,-,0.00,Snow,Light Snow,290,2013-11-13 11:03:00
6:12 AM,21.9,18.0,85,30.33,2.5,WNW,4.6,-,0.00,Snow,Light Snow,290,2013-11-13 11:12:00
6:30 AM,21.9,18.0,85,30.33,3.0,West,4.6,-,0.00,Snow,Light Snow,280,2013-11-13 11:30:00
6:39 AM,21.9,18.0,85,30.33,1.8,West,4.6,-,0.00,Snow,Light Snow,270,2013-11-13 11:39:00
6:50 AM,21.2,17.6,86,30.33,2.5,West,3.5,-,0.00,Snow,Light Snow,270,2013-11-13 11:50:00
6:53 AM,21.9,18.0,85,30.41,2.0,West,4.6,-,0.00,Snow,Light Snow,260,2013-11-13 11:53:00
7:13 AM,23.0,19.0,85,30.33,4.0,West,4.6,-,0.00,Snow,Light Snow,270,2013-11-13 12:13:00
7:32 AM,23.0,19.0,85,30.34,2.5,West,5.8,-,0.00,Snow,Light Snow,270,2013-11-13 12:32:00
7:41 AM,23.0,19.0,85,30.34,5.0,West,3.5,-,0.00,Snow,Light Snow,270,2013-11-13 12:41:00
7:53 AM,23.0,19.0,85,30.42,3.0,Variable,4.6,-,0.00,Snow,Light Snow,0,2013-11-13 12:53:00
8:53 AM,24.1,19.9,84,30.43,6.0,West,4.6,-,0.00,Snow,Light Snow,260,2013-11-13 13:53:00
9:04 AM,24.1,19.9,84,30.35,7.0,West,4.6,-,0.00,Snow,Light Snow,260,2013-11-13 14:04:00
9:27 AM,25.0,19.0,78,30.35,10.0,WNW,6.9,-,0.00,,Overcast,290,2013-11-13 14:27:00
9:40 AM,26.1,19.9,78,30.36,9.0,WNW,10.4,-,0.00,,Overcast,290,2013-11-13 14:40:00
9:53 AM,26.1,19.9,78,30.45,10.0,Variable,6.9,-,0.00,,Overcast,0,2013-11-13 14:53:00
10:11 AM,26.1,19.0,75,30.36,9.0,West,8.1,-,N/A,,Overcast,270,2013-11-13 15:11:00
10:53 AM,27.0,21.0,78,30.44,7.0,West,8.1,-,0.00,Snow,Light Snow,270,2013-11-13 15:53:00
11:53 AM,27.0,19.9,75,30.42,10.0,West,9.2,-,0.00,,Overcast,270,2013-11-13 16:53:00
12:53 PM,28.0,17.1,63,30.40,10.0,West,12.7,18.4,N/A,,Overcast,280,2013-11-13 17:53:00
1:33 PM,28.9,16.0,58,30.32,10.0,West,11.5,-,N/A,,Mostly Cloudy,270,2013-11-13 18:33:00
1:53 PM,28.9,16.0,58,30.39,10.0,West,13.8,19.6,N/A,,Mostly Cloudy,270,2013-11-13 18:53:00
2:12 PM,28.9,16.0,58,30.30,10.0,West,11.5,19.6,N/A,,Mostly Cloudy,280,2013-11-13 19:12:00
2:45 PM,28.9,16.0,58,30.29,10.0,WSW,8.1,16.1,N/A,,Scattered Clouds,240,2013-11-13 19:45:00
2:53 PM,30.0,16.0,56,30.36,10.0,West,12.7,18.4,N/A,,Mostly Cloudy,280,2013-11-13 19:53:00
3:01 PM,28.9,16.0,58,30.28,10.0,West,10.4,18.4,N/A,,Partly Cloudy,270,2013-11-13 20:01:00
3:53 PM,28.9,16.0,58,30.36,10.0,West,8.1,-,N/A,,Clear,260,2013-11-13 20:53:00
4:53 PM,28.9,16.0,58,30.35,10.0,SW,6.9,-,N/A,,Clear,230,2013-11-13 21:53:00
5:53 PM,28.0,15.1,58,30.34,10.0,SW,4.6,-,N/A,,Clear,220,2013-11-13 22:53:00
6:53 PM,28.0,15.1,58,30.34,10.0,WSW,10.4,17.3,N/A,,Clear,240,2013-11-13 23:53:00
7:53 PM,27.0,15.1,61,30.32,10.0,WSW,8.1,18.4,N/A,,Clear,240,2013-11-14 00:53:00
8:53 PM,27.0,16.0,63,30.31,10.0,SW,11.5,18.4,N/A,,Clear,230,2013-11-14 01:53:00
9:53 PM,27.0,16.0,63,30.29,10.0,WSW,9.2,-,N/A,,Clear,240,2013-11-14 02:53:00
10:53 PM,26.1,15.1,63,30.27,10.0,SW,9.2,17.3,N/A,,Clear,220,2013-11-14 03:53:00
11:53 PM,26.1,14.0,60,30.24,10.0,WSW,6.9,17.3,N/A,,Clear,240,2013-11-14 04:53:00